Location: Newark
(39.8867°N, 94.3600°W)
Time: 01:08:47
(UTC+00:00)

N. Korean satellite - Pass Details

Date: 26 January 2020
Orbit: 456 x 505 km, 97.2° (Epoch: 27 February)

Event Time Altitude Azimuth Distance (km) Brightness Sun altitude
Rises 00:10:03 0° 203° (SSW) 2,461 10.8 -8.4°
Reaches altitude 10° 00:12:37 10° 224° (SW) 1,592 10.3 -8.8°
Maximum altitude 00:14:54 17° 266° (W) 1,240 9.9 -9.2°
Drops below altitude 10° 00:17:12 10° 308° (NW) 1,603 9.7 -9.7°
Sets 00:19:48 0° 330° (NNW) 2,486 10.4 -10.1°
